AD5L Weather Reports


Display with metric or nautical units.
time (UTC)temp
F
wind
direction
speed
MPH
gust
MPH
rain 1hr
in
rain 24hr
in
rain mn
in
humidity
%
barometer
mb
20240617102338 79 146 4.0 11.0 0.00 0.00 0.00 90 1010.6
20240617101326 79 122 3.0 16.0 0.00 0.00 0.00 90 1010.6
20240617100336 79 146 3.0 14.0 0.00 0.00 0.00 90 1010.5
20240617095322 79 153 4.0 8.0 0.00 0.00 0.00 90 1010.6
20240617094333 79 169 6.0 12.0 0.00 0.00 0.00 90 1010.5
20240617093321 79 147 4.0 10.0 0.00 0.00 0.00 90 1010.6
20240617092331 79 154 4.0 12.0 0.00 0.00 0.00 90 1010.5
20240617091336 79 140 6.0 11.0 0.00 0.00 0.00 89 1010.4
20240617090324 79 155 5.0 10.0 0.00 0.00 0.00 89 1010.4
20240617085333 79 124 5.0 10.0 0.00 0.00 0.00 89 1010.3
20240617084322 79 133 5.0 10.0 0.00 0.00 0.00 89 1010.5
20240617083332 79 120 4.0 10.0 0.00 0.00 0.00 89 1010.6
20240617082337 79 155 3.0 10.0 0.00 0.00 0.00 88 1010.6
20240617081325 79 176 4.0 11.0 0.00 0.00 0.00 87 1010.7
20240617080336 79 158 6.0 10.0 0.00 0.00 0.00 87 1010.8
20240617075323 79 162 4.0 10.0 0.00 0.00 0.00 87 1011.0
20240617074334 79 138 5.0 14.0 0.00 0.00 0.00 86 1011.1
20240617073343 79 124 5.0 9.0 0.00 0.00 0.00 86 1011.0
20240617072331 80 165 5.0 11.0 0.00 0.00 0.00 85 1011.2
20240617071339 80 134 3.0 11.0 0.00 0.00 0.00 85 1011.2
20240617070349 80 128 4.0 10.0 0.00 0.00 0.00 85 1011.2
20240617065338 80 167 5.0 10.0 0.00 0.00 0.00 84 1011.3
20240617064348 80 176 2.0 6.0 0.00 0.00 0.00 84 1011.5
20240617063328 80 116 3.0 9.0 0.00 0.00 0.00 83 1011.5
20240617062348 81 132 3.0 10.0 0.00 0.00 0.00 83 1011.7
20240617061327 81 135 6.0 11.0 0.00 0.00 0.00 82 1011.8
20240617060322 81 122 4.0 9.0 0.00 0.00 0.00 82 1011.7
20240617055332 81 142 4.0 11.0 0.00 0.00 0.00 81 1011.9
20240617054340 82 176 4.0 14.0 0.00 0.00 0.00 81 1011.7
20240617053328 82 107 6.0 14.0 0.00 0.00 0.00 80 1011.7
20240617052334 82 135 5.0 11.0 0.00 0.00 0.00 80 1011.8
20240617051323 82 102 8.0 14.0 0.00 0.00 0.00 79 1011.8
20240617050331 83 123 6.0 12.0 0.00 0.00 0.00 79 1011.7
20240617045335 83 147 6.0 15.0 0.00 0.00 0.00 78 1011.6
20240617044323 83 133 3.0 15.0 0.00 0.00 0.00 77 1011.5
20240617043334 83 119 8.0 14.0 0.00 0.00 0.00 77 1011.5
20240617042341 83 210 9.0 17.0 0.00 0.00 0.00 77 1011.3
20240617041330 84 141 5.0 10.0 0.00 0.00 0.00 77 1011.2
20240617040340 84 132 4.0 12.0 0.00 0.00 0.00 77 1010.9
20240617035329 84 173 4.0 14.0 0.00 0.00 0.00 76 1010.9
20240617034337 84 101 5.0 14.0 0.00 0.00 0.00 76 1010.9
20240617033345 84 104 4.0 13.0 0.00 0.00 0.00 75 1010.7
20240617032335 84 83 6.0 14.0 0.00 0.00 0.00 74 1010.5
20240617031343 84 137 6.0 12.0 0.00 0.00 0.00 73 1010.4
20240617030334 84 119 5.0 11.0 0.00 0.00 0.00 73 1010.3
20240617025340 85 108 6.0 11.0 0.00 0.00 0.00 72 1010.2
20240617024349 85 120 4.0 11.0 0.00 0.00 0.00 72 1010.0
20240617023340 85 129 3.0 11.0 0.00 0.00 0.00 71 1009.9
20240617022346 86 77 4.0 11.0 0.00 0.00 0.00 71 1009.9
20240617021326 86 145 5.0 11.0 0.00 0.00 0.00 70 1009.8
20240617020334 86 128 6.0 14.0 0.00 0.00 0.00 69 1009.7
20240617015322 87 89 3.0 10.0 0.00 0.00 0.00 69 1009.7
20240617014348 87 86 3.0 6.0 0.00 0.00 0.00 69 1009.6
20240617013327 87 82 4.0 8.0 0.00 0.00 0.00 67 1009.5
20240617012336 88 64 5.0 8.0 0.00 0.00 0.00 66 1009.3
20240617011324 88 108 4.0 11.0 0.00 0.00 0.00 65 1009.3
20240617010333 89 109 5.0 14.0 0.00 0.00 0.00 64 1009.1
20240617005341 89 83 7.0 12.0 0.00 0.00 0.00 63 1009.1
20240617004329 89 133 6.0 14.0 0.00 0.00 0.00 63 1009.1
20240617003338 90 108 5.0 14.0 0.00 0.00 0.00 62 1009.1
20240617002324 90 73 12.0 17.0 0.00 0.00 0.00 61 1009.0
20240617001334 90 87 7.0 14.0 0.00 0.00 0.00 61 1009.0
20240617000323 91 96 8.0 13.0 0.00 0.00 0.00 60 1008.9
20240616235333 91 77 7.0 13.0 0.00 0.00 0.00 60 1008.9
20240616234323 92 86 6.0 13.0 0.00 0.00 0.00 59 1008.9
20240616233332 92 70 6.0 14.0 0.00 0.00 0.00 59 1008.9
20240616232340 91 74 7.0 14.0 0.00 0.00 0.00 58 1009.0
20240616231327 92 84 9.0 15.0 0.00 0.00 0.00 58 1009.0
20240616230335 92 121 7.0 17.0 0.00 0.00 0.00 57 1009.0
20240616225322 93 89 5.0 13.0 0.00 0.00 0.00 58 1009.0
20240616224332 94 103 6.0 11.0 0.00 0.00 0.00 56 1009.0
20240616223340 94 116 2.0 14.0 0.00 0.00 0.00 55 1009.0
20240616222329 94 122 5.0 12.0 0.00 0.00 0.00 53 1009.1
20240616221336 94 147 6.0 13.0 0.00 0.00 0.00 52 1009.2
20240616215335 94 143 5.0 14.0 0.00 0.00 0.00 54 1009.4
20240616214345 94 101 5.0 12.0 0.00 0.00 0.00 54 1009.4
20240616213326 94 157 5.0 11.0 0.00 0.00 0.00 54 1009.6
20240616212344 94 128 5.0 13.0 0.00 0.00 0.00 54 1009.7
20240616211324 94 79 4.0 12.0 0.00 0.00 0.00 54 1009.8
20240616210335 94 90 3.0 13.0 0.00 0.00 0.00 54 1009.9
20240616205324 94 116 5.0 10.0 0.00 0.00 0.00 55 1010.0
20240616204332 93 99 6.0 12.0 0.00 0.00 0.00 55 1010.2
20240616203321 94 116 3.0 9.0 0.00 0.00 0.00 55 1010.3
20240616202332 94 135 3.0 17.0 0.00 0.00 0.00 54 1010.5
20240616201341 95 115 3.0 8.0 0.00 0.00 0.00 54 1010.4
20240616200330 93 153 5.0 10.0 0.00 0.00 0.00 55 1010.5
20240616195337 92 124 6.0 11.0 0.00 0.00 0.00 56 1010.7
20240616194327 92 112 4.0 9.0 0.00 0.00 0.00 58 1011.1
20240616193337 92 133 5.0 9.0 0.00 0.00 0.00 56 1011.3
20240616192327 92 129 4.0 10.0 0.00 0.00 0.00 56 1011.4
20240616191336 92 91 5.0 10.0 0.00 0.00 0.00 58 1011.4
20240616190325 92 160 5.0 10.0 0.00 0.00 0.00 55 1011.7
20240616185334 94 147 3.0 10.0 0.00 0.00 0.00 54 1011.7
20240616184324 93 149 3.0 11.0 0.00 0.00 0.00 57 1011.9
20240616183333 93 104 5.0 9.0 0.00 0.00 0.00 54 1011.9
20240616182324 93 166 5.0 11.0 0.00 0.00 0.00 56 1012.0
20240616181330 92 232 5.0 12.0 0.00 0.00 0.00 57 1012.1
20240616180340 91 106 6.0 12.0 0.00 0.00 0.00 59 1012.3
20240616175329 92 184 7.0 13.0 0.00 0.00 0.00 58 1012.2
20240616174340 91 210 6.0 13.0 0.00 0.00 0.00 62 1012.3
20240616173321 90 155 5.0 13.0 0.00 0.00 0.00 61 1012.3
20240616172340 90 178 6.0 11.0 0.00 0.00 0.00 63 1012.2
20240616171321 90 229 6.0 10.0 0.00 0.00 0.00 65 1012.1
20240616170340 90 167 5.0 14.0 0.00 0.00 0.00 65 1011.9
20240616164340 89 192 7.0 14.0 0.00 0.00 0.00 64 1012.2
20240616163329 89 158 5.0 15.0 0.00 0.00 0.00 66 1012.3
20240616162339 89 124 7.0 15.0 0.00 0.00 0.00 65 1012.3
20240616161329 88 117 7.0 15.0 0.00 0.00 0.00 69 1012.5
20240616160338 87 120 7.0 13.0 0.00 0.00 0.00 69 1012.7
20240616155328 87 196 7.0 12.0 0.00 0.00 0.00 70 1013.0
20240616154339 87 155 4.0 9.0 0.00 0.00 0.00 70 1013.0
20240616153328 87 218 4.0 8.0 0.00 0.00 0.00 71 1013.2
20240616152338 86 160 5.0 9.0 0.00 0.00 0.00 72 1013.3
20240616151325 87 183 3.0 10.0 0.00 0.00 0.00 75 1013.2
20240616150335 86 137 3.0 9.0 0.00 0.00 0.00 73 1013.2
20240616145325 85 165 4.0 9.0 0.00 0.00 0.00 75 1013.2
20240616144335 84 159 4.0 10.0 0.00 0.00 0.00 78 1013.1
20240616143325 84 117 2.0 10.0 0.00 0.00 0.00 80 1012.9
20240616142335 84 154 4.0 10.0 0.00 0.00 0.00 81 1013.0
20240616141340 83 246 5.0 11.0 0.00 0.00 0.00 82 1013.0
20240616140321 82 93 5.0 11.0 0.00 0.00 0.00 82 1012.9
20240616135340 82 95 5.0 12.0 0.00 0.00 0.00 84 1012.9
20240616134350 82 198 6.0 10.0 0.00 0.00 0.00 84 1013.1
20240616133330 81 236 3.0 8.0 0.00 0.00 0.00 86 1013.1
20240616132348 81 125 4.0 9.0 0.00 0.00 0.00 87 1013.2
20240616131329 81 169 3.0 6.0 0.00 0.00 0.00 86 1013.3
20240616130348 80 149 2.0 7.0 0.00 0.00 0.00 88 1013.3
20240616125329 79 131 4.0 7.0 0.00 0.00 0.00 89 1013.2
20240616124339 79 167 3.0 6.0 0.00 0.00 0.00 89 1013.1
20240616123328 78 163 2.0 4.0 0.00 0.00 0.00 90 1013.3
20240616122338 78 145 1.0 3.0 0.00 0.00 0.00 92 1013.1
20240616121327 77 155 0.0 3.0 0.00 0.00 0.00 93 1013.0
20240616120338 76 138 0.0 2.0 0.00 0.00 0.00 93 1013.0
20240616115327 76 148 1.0 3.0 0.00 0.00 0.00 94 1012.9
20240616114337 76 140 0.0 1.0 0.00 0.00 0.00 94 1012.7
20240616113326 76 140 0.0 3.0 0.00 0.00 0.00 94 1012.7
20240616112336 76 158 1.0 3.0 0.00 0.00 0.00 94 1012.7
20240616111326 76 145 1.0 2.0 0.00 0.00 0.00 93 1012.6
20240616110335 76 134 1.0 3.0 0.00 0.00 0.00 93 1012.6
20240616105323 76 143 1.0 3.0 0.00 0.00 0.00 92 1012.5
20240616104333 76 135 2.0 5.0 0.00 0.00 0.00 92 1012.5
20240616103323 77 148 2.0 6.0 0.00 0.00 0.00 92 1012.3